Regional Weather Roundup
Issued by NWS

Home | Current Version | Previous Version | Graphics & Text | Print | Product List | Glossary On
Versions: 1 2 3 4 5 6 7 8 9 10 11 12 13 14 15 16 17 18 19 20 21 22 23 24 25 26 27 28 29 30 31 32 33 34 35 36 37 38 39 40 41 42 43 44 45 46 47 48 49 50
000
ASUS45 KBOI 190610
RWRID
WEATHER ROUNDUP FOR IDAHO
NATIONAL WEATHER SERVICE BOISE ID
1200 AM MDT FRI SEP 19 2014

NOTE: "FAIR" INDICATES FEW OR NO CLOUDS BELOW 12000 FEET
WITH NO SIGNIFICANT WEATHER AND/OR OBSTRUCTIONS TO VISIBILITY

IDZ012-014-190700-
SOUTHWEST IDAHO


CITY           SKY/WX    TMP DP  RH WIND       PRES   REMARKS
BOISE          CLEAR     67  46  47 W5        29.87R
CALDWELL       CLEAR     64  43  45 NW9       29.88R
MOUNTAIN HOME  CLEAR     63  43  47 NW8       29.87R
$$

IDZ016-017-190700-
SOUTHCENTRAL IDAHO


CITY           SKY/WX    TMP DP  RH WIND       PRES   REMARKS
BURLEY         CLEAR     60  46  59 SW6       29.90R HAZE
JEROME         CLEAR     61  41  47 CALM      29.91R
TWIN FALLS     CLEAR     70  40  33 SW7       29.92R
$$

IDZ019>023-190700-
SOUTHEAST IDAHO


CITY           SKY/WX    TMP DP  RH WIND       PRES   REMARKS
IDAHO FALLS    MOCLDY    59  50  72 SW8       29.94R
POCATELLO      CLEAR     59  57  93 SW3       29.93R
REXBURG        CLOUDY    62  49  62 CALM      29.96R
$$

IDZ006-010-011-018-031-032-190700-
CENTRAL IDAHO MOUNTAINS


CITY           SKY/WX    TMP DP  RH WIND       PRES   REMARKS
MCCALL         PTCLDY    54  39  57 N5        29.97R
HAILEY         CLEAR     54  41  62 NW9       30.00R
STANLEY          N/A     45  34  65 SE5       30.07R
SALMON         CLEAR     54  43  66 SE3       29.89R
CHALLIS        CLEAR     56  37  49 S3        29.96R
$$

IDZ002-004-006-007-026-190700-
NORTHERN IDAHO


CITY           SKY/WX    TMP DP  RH WIND       PRES   REMARKS
LEWISTON       PTCLDY    70  49  47 S8        29.86R
LOWELL           N/A     61  53  75 CALM      29.88R
COEUR D`ALENE  MOCLDY    66  46  48 SW15      29.82R
MULLAN PASS    CLOUDY    49  45  86 SW8G21    29.96S
$$



USA.gov is the U.S. government's official web portal to all federal, state and local government web resources and services.